Location: Brno
(49.2000°N, 16.6330°E)
Time: 19:15:45
(UTC+01:00)

Cosmos 2227 - Visible Passes

Search period start: 07 December 2016 00:00
Search period end: 17 December 2016 00:00
Orbit: 835 x 861 km, 71.0° (Epoch: 06 December)

Date Brightness Start Highest point End Pass type
(mag) Time Alt. Az. Time Alt. Az. Time Alt. Az.
07 Dec 6.4 17:04:19 10° WNW 17:07:34 15° NNW 17:10:50 10° N visible
08 Dec 6.4 16:51:10 10° WNW 16:54:27 15° NNW 16:57:44 10° N visible
09 Dec 6.3 16:38:00 10° WNW 16:41:18 16° NNW 16:44:38 10° N visible
10 Dec 6.3 16:24:50 10° WNW 16:28:11 16° NNW 16:31:32 10° N visible
